sat.trackr.live / text

‹ back to catalog

NEE-01 PEGASO

NORAD 39151 · 2013-018B

PAYLOAD ACTIVE UNKNOWN

§ Identity

Operator
Country
ECU
Launch date
2013-04-26
Launch site
JSC
Launch vehicle
Mass (kg)
RCS (m²)
0.02

Purposes: tech_demo

External: N2YO · Heavens-Above · Gunter

§ Orbital elements

Epoch: 2026-05-24T08:22:23.610432Z

Period
96.42 min
Inclination
98.1194°
Eccentricity
0.0011472
Mean motion
14.93521589 rev/d
Perigee alt
579.0 km
Apogee alt
595.0 km
Semi-major
6,965.1 km
B*
2.2047e-4
RAAN
287.7180°
Arg perigee
239.1251°
Mean anomaly
120.8840°
Rev number
70,714

§ Raw data

NEE-01 PEGASO1 39151U 13018B   26144.34888438  .00002263  00000+0  22047-3 0  99952 39151  98.1194 287.7180 0011472 239.1251 120.8840 14.93521589707143

JSON: /api/v1/satellites/39151 · /tle

For live sub-satellite position, see the globe view (requires WebGL).

§ Visibility from observer

Set your observer location to see the next 7 days of passes ≥ 10°. The values pass through the URL so the page stays shareable.

No JS? Fill the form by hand. The geolocation button needs JavaScript.

§ Radio — SatNOGS DB

ModeDescriptionDownlinkUplink
FM Downlink 910.000 MHz

1 transmitter · refreshed weekly from db.satnogs.org